Location: Unspecified
(0.0000°N, 0.0000°E)
Time: 02:32:08
(UTC+00:00)

Envisat - Visible Passes

Search period start: 12 December 2018 00:00
Search period end: 22 December 2018 00:00
Orbit: 764 x 766 km, 98.2° (Epoch: 11 December)

Date Brightness Start Highest point End Pass type
(mag) Time Alt. Az. Time Alt. Az. Time Alt. Az.
12 Dec 3.8 18:38:42 10° SE 18:43:00 28° ENE 18:47:17 10° NNE visible
12 Dec 5.6 20:18:32 10° SW 20:21:44 17° WSW 20:24:55 10° WNW visible
13 Dec 3.9 19:40:15 10° S 19:45:07 47° WSW 19:49:59 10° NNW visible
14 Dec 3.0 19:03:29 10° SSE 19:08:29 59° ENE 19:13:26 10° N visible
15 Dec 4.2 18:28:06 10° SE 18:31:50 21° ENE 18:35:33 10° NNE visible
15 Dec 5.2 20:06:39 10° SSW 20:10:35 23° WSW 20:14:31 10° NW visible
16 Dec 3.3 19:28:55 10° S 19:33:57 66° WSW 19:38:58 10° NNW visible
17 Dec 3.3 18:52:31 10° SSE 18:57:19 43° ENE 19:02:05 10° N visible
17 Dec 6.1 20:35:08 10° WSW 20:36:02 10° WSW 20:36:56 10° W visible
18 Dec 4.5 18:17:48 10° ESE 18:20:41 15° ENE 18:23:32 10° NE visible
18 Dec 4.7 19:54:59 10° SSW 19:59:25 31° WSW 20:03:51 10° NW visible
19 Dec 2.9 19:17:42 10° SSE 19:22:47 89° WSW 19:27:51 10° NNW visible
20 Dec 3.7 18:41:40 10° SE 18:46:09 31° ENE 18:50:36 10° NNE visible
20 Dec 5.8 20:22:05 10° SW 20:24:53 15° WSW 20:27:39 10° WNW visible
21 Dec 4.2 19:43:29 10° S 19:48:16 42° WSW 19:53:01 10° NNW visible
